Change the Weather History Date:

Friday, July 12, 2013

  Actual Average Record
Temperature  
Mean Temperature 92 °F -  
Max Temperature 104 °F 108 °F 120 °F (2005)
Min Temperature 82 °F 82 °F 63 °F (1954)
Cooling Degree Days 27    
Growing Degree Days 42 (Base 50)    
Moisture  
Dew Point 65 °F    
Average Humidity 41    
Maximum Humidity 71    
Minimum Humidity 25    
Precipitation  
Precipitation 0.00 in - - ()
Sea Level Pressure  
Sea Level Pressure 29.73 in    
Wind  
Wind Speed 5 mph (WSW)    
Max Wind Speed 22 mph    
Max Gust Speed 25 mph    
Visibility 10 miles    
Events Thunderstorm    
Averages and records for this station are not official NWS values.
T = Trace of Precipitation, MM = Missing Value Source: NWS Daily Summary

Daily Weather History Graph

Daily Weather History Graph

Search for Another Location

Airport or City:

Trip Planner

Search our weather history database for the weather conditions in past years. The results will help you decide how hot, cold, wet, or windy it might be!

Date:

Astronomy

Jul. 12, 2013 Rise Set
Actual Time 5:34 AM PDT 7:53 PM PDT
Civil Twilight 5:05 AM PDT 8:22 PM PDT
Nautical Twilight 4:30 AM PDT 8:57 PM PDT
Astronomical Twilight 3:51 AM PDT 9:36 PM PDT
Moon 9:43 AM PDT (7/12) 10:19 PM PDT (7/12)
Length of Visible Light 15h 16m
Length of Day
14h 18m
Waxing Crescent, 18% of the Moon is Illuminated
Jul 12
Waxing Crescent
Jul 15
First Quarter
Jul 22
Full
Jul 29
Last Quarter
Aug 6
New

Hourly Weather History & Observations

Time (PDT) Temp. Heat Index Dew Point Humidity Pressure Visibility Wind Dir Wind Speed Gust Speed Precip Events Conditions
12:56 AM 84.9 °F 90.1 °F 71.1 °F 63% 29.74 in 10.0 mi Calm Calm - N/A   Clear
1:56 AM 86.0 °F 90.7 °F 70.0 °F 59% 29.74 in 10.0 mi West 4.6 mph - N/A   Clear
2:56 AM 84.9 °F 89.4 °F 70.0 °F 61% 29.74 in 10.0 mi WSW 3.5 mph - N/A   Clear
3:56 AM 84.0 °F 89.0 °F 71.1 °F 65% 29.74 in 10.0 mi WSW 5.8 mph - N/A   Clear
4:56 AM 82.0 °F 86.7 °F 72.0 °F 71% 29.75 in 10.0 mi Calm Calm - N/A   Clear
5:56 AM 82.0 °F 86.7 °F 72.0 °F 71% 29.75 in 10.0 mi Calm Calm - N/A   Clear
6:56 AM 84.0 °F 89.0 °F 71.1 °F 65% 29.78 in 10.0 mi Calm Calm - N/A   Clear
7:56 AM 87.1 °F 90.6 °F 68.0 °F 53% 29.78 in 10.0 mi Calm Calm - N/A   Partly Cloudy
8:56 AM 90.0 °F 92.8 °F 66.9 °F 46% 29.78 in 10.0 mi Calm Calm - N/A   Partly Cloudy
9:56 AM 93.9 °F 97.5 °F 66.9 °F 41% 29.77 in 10.0 mi SE 4.6 mph - N/A   Partly Cloudy
10:56 AM 97.0 °F 100.4 °F 66.0 °F 36% 29.77 in 10.0 mi SE 11.5 mph 16.1 mph N/A   Partly Cloudy
11:30 AM 96.8 °F 99.0 °F 64.4 °F 34% 29.86 in 10.0 mi Variable 4.6 mph - N/A Thunderstorm Scattered Clouds
11:46 AM 96.8 °F 99.0 °F 64.4 °F 34% 29.86 in 10.0 mi East 6.9 mph - N/A   Mostly Cloudy
11:56 AM 95.0 °F 97.0 °F 64.0 °F 36% 29.75 in 10.0 mi WSW 21.9 mph 25.3 mph N/A   Overcast
12:13 PM 95.0 °F 97.0 °F 64.4 °F 36% 29.85 in 10.0 mi WSW 20.7 mph - N/A   Mostly Cloudy
12:56 PM 100.0 °F 101.2 °F 61.0 °F 28% 29.73 in 10.0 mi West 17.3 mph 23.0 mph N/A   Clear
1:56 PM 98.1 °F 99.1 °F 62.1 °F 30% 29.72 in 10.0 mi West 18.4 mph - N/A   Clear
2:56 PM 102.0 °F 103.3 °F 61.0 °F 26% 29.69 in 10.0 mi West 9.2 mph - N/A   Clear
3:56 PM 102.0 °F 103.3 °F 61.0 °F 26% 29.66 in 10.0 mi West 4.6 mph 17.3 mph N/A   Clear
4:56 PM 102.0 °F 102.7 °F 60.1 °F 25% 29.65 in 10.0 mi Variable 5.8 mph - N/A   Scattered Clouds
5:29 PM 100.4 °F 101.3 °F 60.8 °F 27% 29.74 in 10.0 mi SW 9.2 mph - N/A Thunderstorm Clear
5:56 PM 100.0 °F 101.2 °F 61.0 °F 28% 29.64 in 10.0 mi WNW 9.2 mph - N/A   Partly Cloudy
6:56 PM 99.0 °F 99.5 °F 61.0 °F 28% 29.65 in 10.0 mi North 9.2 mph - N/A   Clear
7:56 PM 98.1 °F 99.1 °F 62.1 °F 30% 29.65 in 10.0 mi North 6.9 mph - N/A   Clear
8:56 PM 93.9 °F 94.0 °F 61.0 °F 33% 29.67 in 10.0 mi South 3.5 mph - N/A   Clear
9:56 PM 93.9 °F 94.8 °F 62.1 °F 35% 29.68 in 10.0 mi SW 4.6 mph - N/A   Clear
10:56 PM 93.9 °F 95.2 °F 63.0 °F 36% 29.69 in 10.0 mi WSW 6.9 mph - N/A   Clear
11:56 PM 91.9 °F 93.3 °F 64.0 °F 39% 29.70 in 10.0 mi West 4.6 mph - N/A   Clear